1394668826301,1.33326
1394668886301,1.31719
1394668946300,1.31312
1394669006300,1.30795
1394669066301,1.31119
1394669126301,1.30141
1394669186301,1.29590
1394669246301,1.29214
1394669306301,1.28285
1394669366301,1.28892
1394669426301,1.28324
1394669486301,1.28690
1394669546301,1.26369
1394669606300,1.27822
1394669666300,1.26209
1394669726300,1.25696
1394669786300,1.26087
1394669846300,1.25656
1394669906300,1.24592
1394669966300,1.24927
1394670026301,1.23690
1394670086301,1.23159
1394670146301,1.23600
1394670206301,1.22347
1394670266300,1.22509
1394670326300,1.22872
1394670386301,1.21427
1394670446301,1.21862
1394670506301,1.20476
1394670566301,1.20553
1394670626301,1.20402
1394670686301,1.20379
1394670746301,1.20500
1394670806301,1.20823
1394670866301,1.20659
1394670926300,1.21158
1394670986300,1.21206
1394671046300,1.23480
1394671106300,1.24293
1394671166300,1.23768
1394671226300,1.22770
1394671286300,1.22396
1394671346300,1.21950
1394671406301,1.21018
1394671466301,1.20934
1394671526301,1.20786
1394671586301,1.19782
1394671646300,1.20000
1394671706300,1.20192
1394671766301,1.19677
1394671826301,1.19452
1394671886301,1.17790
1394671946301,1.18557
1394672006301,1.18830
1394672066301,1.18642
1394672126301,1.18199
1394672186301,1.17468
1394672246301,1.17798
1394672306300,1.17319
1394672366300,1.17634
1394672426312,1.17524
1394672486312,1.16825
1394672546312,1.16909
1394672606312,1.16331
1394672666312,1.15949
1394672726312,1.15791
1394672786312,1.15608
1394672846312,1.16321
1394672906312,1.14624
1394672966312,1.15559
1394673026312,1.15949
1394673086312,1.15965
1394673146312,1.16054
1394673206312,1.15268
1394673266312,1.15398
1394673326312,1.15334
1394673386312,1.15256
1394673446312,1.15616
1394673506312,1.16020
1394673566312,1.14497
1394673626312,1.14701
1394673686312,1.13906
1394673746312,1.14058
1394673806312,1.13545
1394673866312,1.13202
1394673926312,1.12672
1394673986312,1.13534
1394674046312,1.12652
1394674106312,1.12344
1394674166312,1.13440
1394674226312,1.12319
1394674286312,1.11361
1394674346312,1.12749
1394674406312,1.11995
1394674466312,1.10276
1394674526312,1.11622
1394674586312,1.10183
1394674646312,1.10890
1394674706312,1.10201
1394674766312,1.09667
1394674826312,1.09616
1394674886312,1.10046
1394674946312,1.09927
1394675006312,1.09350
1394675066312,1.09824
1394675126312,1.09077
1394675186312,1.09585
1394675246312,1.10197
1394675306312,1.09382
1394675366312,1.08703
1394675426312,1.08912
1394675486312,1.09085
1394675546312,1.08379
1394675606312,1.09642
1394675666312,1.08548
1394675726312,1.10151
1394675786312,1.09256
1394675846312,1.09145
1394675906312,1.08125
1394675966312,1.08071
1394676026324,1.08866
1394676086324,1.08681
1394676146324,1.08270
1394676206324,1.08225
1394676266324,1.07271
1394676326324,1.07296
1394676386324,1.06450
1394676446324,1.07316
1394676506324,1.06659
1394676566324,1.06829
1394676626324,1.06719
1394676686324,1.05780
1394676746324,1.06873
1394676806324,1.07248
1394676866324,1.05734
1394676926324,1.06152
1394676986324,1.06988
1394677046324,1.06556
1394677106324,1.06218
1394677166324,1.05933
1394677226324,1.06473
1394677286324,1.06097
1394677346324,1.06248
1394677406324,1.06952
1394677466324,1.06898
1394677526324,1.06659
1394677586324,1.06590
1394677646324,1.06022
1394677706324,1.06659
1394677766324,1.05949
1394677826324,1.06064
1394677886324,1.05405
1394677946324,1.05804
1394678006324,1.05687
1394678066324,1.05221
1394678126324,1.06364
1394678186324,1.05063
1394678246324,1.04411
1394678306324,1.04965
1394678366324,1.04280
1394678426324,1.05268
1394678486324,1.04945
1394678546324,1.04659
1394678606324,1.03226
1394678666324,1.04719
1394678726324,1.02852
1394678786324,1.03712
1394678846324,1.04326
1394678906324,1.04840
1394678966324,1.04348
1394679026324,1.04522
1394679086324,1.04528
1394679146324,1.03795
1394679206324,1.04658
1394679266324,1.03634
1394679326324,1.04134
1394679386324,1.04025
1394679446324,1.03457
1394679506324,1.03958
1394679566324,1.03592
1394679626335,1.03873
1394679686335,1.04118
1394679746335,1.03537
1394679806335,1.03512
1394679866335,1.03029
1394679926335,1.03813
1394679986335,1.03096
1394680046335,1.03389
1394680106335,1.02865
1394680166335,1.02811
1394680226335,1.03358
1394680286335,1.03895
1394680346335,1.03909
1394680406335,1.04489
1394680466335,1.03660
1394680526335,1.04647
1394680586335,1.03716
1394680646335,1.03878
1394680706335,1.03417
1394680766335,1.04028
1394680826335,1.03542
1394680886335,1.03547
1394680946335,1.04612
1394681006335,1.03598
1394681066335,1.04358
1394681126335,1.03828
1394681186335,1.04566
1394681246335,1.04358
1394681306335,1.04197
1394681366335,1.03797
1394681426335,1.03756
1394681486335,1.03932
1394681546335,1.02730
1394681606335,1.03546
1394681666335,1.03194
1394681726335,1.02893
1394681786335,1.02256
1394681846335,1.03727
1394681906335,1.02244
1394681966335,1.03062
1394682026335,1.02764
1394682086335,1.02996
1394682146335,1.03117
1394682206335,1.03039
1394682266335,1.02315
1394682326335,1.01969
1394682386335,1.02925
1394682446335,1.02372
1394682506335,1.02178
1394682566335,1.03453
1394682626335,1.02093
1394682686335,1.02857
1394682746335,1.03773
1394682806335,1.03127
1394682866335,1.02512
1394682926335,1.02503
1394682986335,1.02804
1394683046335,1.03290
1394683106335,1.03031
1394683166335,1.01315
1394683226347,1.02201
1394683286347,1.02132
1394683346347,1.01567
1394683406347,1.01844
1394683466347,1.02027
1394683526347,1.02415
1394683586347,1.02415
1394683646347,1.02617
1394683706347,1.02151
1394683766347,1.03183
1394683826347,1.01974
1394683886347,1.02253
1394683946347,1.02454
1394684006347,1.02190
1394684066347,1.02293
1394684126347,1.02997
1394684186347,1.02523
1394684246347,1.02206
1394684306347,1.01726
1394684366347,1.02109
1394684426347,1.02483
1394684486347,1.02986
1394684546347,1.02747
1394684606347,1.02586
1394684666347,1.03022
1394684726347,1.02961
1394684786347,1.02764
1394684846347,1.01997
1394684906347,1.03765
1394684966347,1.02934
1394685026347,1.03290
1394685086347,1.03066
1394685146347,1.02245
1394685206347,1.02383
1394685266347,1.02584
1394685326347,1.03614
1394685386347,1.02848
1394685446347,1.02138
1394685506347,1.03115
1394685566347,1.02879
1394685626347,1.02959
1394685686347,1.03736
1394685746347,1.02392
1394685806347,1.03112
1394685866347,1.03005
1394685926347,1.03872
1394685986347,1.03366
1394686046347,1.03454
1394686106347,1.03951
1394686166347,1.04678
1394686226347,1.03735
1394686286347,1.03766
1394686346347,1.04229
1394686406347,1.05356
1394686466347,1.04361
1394686526347,1.04438
1394686586347,1.05037
1394686646347,1.04546
1394686706347,1.04920
1394686766347,1.03914
1394686826358,1.04775
1394686886358,1.04157
1394686946358,1.04439
1394687006358,1.03888
1394687066358,1.04458
1394687126358,1.04653
1394687186358,1.04370
1394687246358,1.03656
1394687306358,1.03958
1394687366358,1.03589
1394687426358,1.03995
1394687486358,1.03911
1394687546358,1.03851
1394687606358,1.03586
1394687666358,1.04157
1394687726358,1.04259
1394687786358,1.03887
1394687846358,1.04153
1394687906358,1.03577
1394687966358,1.04129
1394688026358,1.03650
1394688086358,1.04257
1394688146358,1.03308
1394688206358,1.03060
1394688266358,1.03586
1394688326358,1.03102
1394688386358,1.02899
1394688446358,1.02533
1394688506358,1.03264
1394688566358,1.03402
1394688626358,1.02967
1394688686358,1.03596
1394688746358,1.02868
1394688806358,1.03246
1394688866358,1.03190
1394688926358,1.02361
1394688986358,1.02872
1394689046358,1.03007
1394689106358,1.03538
1394689166358,1.03336
1394689226358,1.03175
1394689286358,1.03050
1394689346358,1.02972
1394689406358,1.03140
1394689466358,1.02841
1394689526358,1.03437
1394689586358,1.03491
1394689646358,1.03406
1394689706358,1.02260
1394689766358,1.02861
1394689826358,1.03508
1394689886358,1.03165
1394689946358,1.02367
1394690006358,1.02555
1394690066358,1.02516
1394690126358,1.02578
1394690186358,1.01909
1394690246358,1.03254
1394690306358,1.02987
1394690366358,1.02838
1394690426370,1.03021
1394690486370,1.02397
1394690546370,1.03397
1394690606370,1.02987
1394690666370,1.03128
1394690726370,1.03370
1394690786370,1.02976
1394690846370,1.03240
1394690906370,1.03231
1394690966370,1.02073
1394691026370,1.02401
1394691086370,1.02977
1394691146370,1.03116
1394691206370,1.03282
1394691266370,1.02616
1394691326370,1.03356
1394691386370,1.03734
1394691446370,1.03376
1394691506370,1.03199
1394691566370,1.03498
1394691626370,1.04471
1394691686370,1.03871
1394691746370,1.02717
1394704886413,1.04554
1394704946413,1.05287
1394705006413,1.05305
1394705066413,1.04280
1394705126413,1.04179
1394705186413,1.04096
1394705246413,1.04512
1394705306413,1.04106
1394705366413,1.04286
1394705426413,1.04059
1394705486413,1.03205
1394705546413,1.03788
1394705606413,1.04141
1394705666413,1.04219
1394705726413,1.04408
1394705786413,1.03711
1394705846413,1.03540
1394705906413,1.03711
1394705966413,1.04871
1394706026413,1.04645
1394706086413,1.04471
1394706146413,1.04284
1394706206413,1.04212
1394706266413,1.04155
1394706326413,1.03609
1394706386413,1.03497
1394706446413,1.03735
1394706506413,1.03073
1394706566413,1.04207
1394706626413,1.04136
1394706686413,1.03150
1394706746413,1.03641
1394706806413,1.03210
1394706866413,1.02949
1394706926413,1.03029
1394706986413,1.03996
1394707046413,1.03101
1394707106413,1.04299
1394707166413,1.03628
1394707226413,1.03786
1394707286413,1.03394
1394707346413,1.04375
1394707406413,1.03404
1394707466413,1.03937
1394707526413,1.03819
1394707586413,1.03225
1394707646413,1.03599
1394707706413,1.03203
1394707766413,1.04540
1394707826413,1.04813
1394707886413,1.04088
1394707946413,1.04778
1394708006413,1.05517
1394708066413,1.04826
1394708126413,1.05454
1394708186413,1.05365
1394708246413,1.05240
1394708306413,1.05829
1394708366413,1.05455
1394708426424,1.05574
1394708486424,1.04614
1394708546424,1.05397
1394708606424,1.04363
1394708666424,1.05295
1394708726424,1.05187
1394708786424,1.04712
1394708846424,1.04477
1394708906424,1.04890
1394708966424,1.05023
1394709026424,1.04864
1394709086424,1.04968
1394709146424,1.04710
1394709206424,1.06116
1394709266424,1.04949
1394709326424,1.05501
1394709386424,1.05739
1394709446424,1.05617
1394709506424,1.05352
1394709566424,1.06146
1394709626424,1.06305
1394709686424,1.05746
1394709746424,1.07037
1394709806424,1.06546
1394709866424,1.07543
1394709926424,1.07480
1394709986424,1.07410
1394710046424,1.07009
1394710106424,1.07497
1394710166424,1.08055
1394710226424,1.06575
1394710286424,1.08043
1394710346424,1.06945
1394710406424,1.07823
1394710466424,1.07552
1394710526424,1.07882
1394710586424,1.08574
1394710646424,1.07601
1394710706424,1.07495
1394710766424,1.08262
1394710826424,1.07902
1394710886424,1.07443
1394710946424,1.08373
1394711006424,1.08532
1394711066424,1.08128
1394711126424,1.08049
1394711186424,1.07537
1394711246424,1.08001
1394711306424,1.08063
1394711366424,1.07947
1394711426424,1.08049
1394711486424,1.07036
1394711546424,1.07559
1394711606424,1.07734
1394711666424,1.07400
1394711726424,1.07994
1394711786424,1.08128
1394711846424,1.07822
1394711906424,1.07717
1394711966424,1.06503
1394712026436,1.08570
1394712086436,1.08398
1394712146436,1.07890
1394712206436,1.08502
1394712266436,1.07783
1394712326436,1.07566
1394712386436,1.07500
1394712446436,1.07803
1394712506436,1.07542
1394712566436,1.07920
1394712626436,1.07617
1394712686436,1.08118
1394712746436,1.08504
1394712806436,1.07416
1394712866436,1.07693
1394712926436,1.07249
1394712986436,1.06895
1394713046436,1.08672
1394713106436,1.07218
1394713166436,1.07301
1394713226436,1.07463
1394713286436,1.08592
1394713346436,1.08874
1394713406436,1.07729
1394713466436,1.08131
1394713526436,1.08336
1394713586436,1.08650
1394713646436,1.07963
1394713706436,1.08916
1394713766436,1.08616
1394713826436,1.08512
1394713886436,1.08595
1394713946436,1.08231
1394714006436,1.08771
1394714066436,1.08177
1394714126436,1.08510
1394714186436,1.07665
1394714246436,1.08329
1394714306436,1.08462
1394714366436,1.08594
1394714426436,1.08286
1394714486436,1.09026
1394714546436,1.08443
1394714606436,1.07633
1394714666436,1.08650
1394714726436,1.08817
1394714786436,1.08061
1394714846436,1.07831
1394714906436,1.07562
1394714966436,1.08551
1394715026436,1.08148
1394715086436,1.07583
1394715146436,1.07974
1394715206436,1.08231
1394715266436,1.07637
1394715326436,1.07833
1394715386436,1.06601
1394715446436,1.07690
1394715506436,1.06952
1394715566436,1.07303
1394715626447,1.06975
1394715686447,1.07345
1394715746447,1.08258
1394715806447,1.07594
1394715866447,1.07017
1394715926447,1.07786
1394715986447,1.07751
1394716046447,1.07666
1394716106447,1.07870
1394716166447,1.07178
1394716226447,1.07079
1394716286447,1.06942
1394716346447,1.07302
1394716406447,1.07307
1394716466447,1.07642
1394716526447,1.07064
1394716586447,1.06934
1394716646447,1.06742
1394716706447,1.06814
1394716766447,1.07100
1394716826447,1.07032
1394716886447,1.08148
1394716946447,1.07050
1394717006447,1.07078
1394717066447,1.06986
1394717126447,1.06576
1394717186447,1.06855
1394717246447,1.06533
1394717306447,1.05983
1394717366447,1.06066
1394717426447,1.06619
1394717486447,1.06507
1394717546447,1.05798
1394717606447,1.06592
1394717666447,1.05748
1394717726447,1.07137
1394717786447,1.05856
1394717846447,1.07392
1394717906447,1.06507
1394717966447,1.06147
1394718026447,1.05571
1394718086447,1.06968
1394718146447,1.06884
1394718206447,1.07024
1394718266447,1.07111
1394718326447,1.07359
1394718386447,1.08166
1394718446447,1.08805
1394718506447,1.09273
1394718566447,1.08886
1394718626447,1.09122
1394718686447,1.08534
1394718746447,1.08846
1394718806447,1.08076
1394718866447,1.07828
1394718926447,1.08328
1394718986447,1.07485
1394719046447,1.06951
1394719106447,1.06700
1394719166447,1.07179
1394719226459,1.07374
1394719286459,1.06431
1394719346459,1.06327
1394719406459,1.06861
1394719466459,1.06416
1394719526459,1.05747
1394719586459,1.05662
1394719646459,1.06172
1394719706459,1.05765
1394719766459,1.06081
1394719826459,1.05172
1394719886459,1.05954
1394719946459,1.05308
1394720006459,1.06712
1394720066459,1.06072
1394720126459,1.05988
1394720186459,1.05672
1394720246459,1.06057
1394720306459,1.06102
1394720366459,1.05050
1394720426459,1.05208
1394720486459,1.05073
1394720546459,1.05240
1394720606459,1.04272
1394720666459,1.05512
1394720726459,1.05548
1394720786459,1.04999
1394720846459,1.04596
1394720906459,1.05694
1394720966459,1.04168
1394721026459,1.05087
1394721086459,1.04284
1394721146459,1.05115
1394721206459,1.04773
1394721266459,1.04328
1394721326459,1.04063
1394721386459,1.04719
1394721446459,1.04165
1394721506459,1.03623
1394721566459,1.04041
1394721626459,1.03706
1394721686459,1.04542
1394721746459,1.03414
1394721806459,1.04014
1394721866459,1.03574
1394721926459,1.03736
1394721986459,1.04296
1394722046459,1.02901
1394722106459,1.03327
1394722166459,1.03357
1394722226459,1.03638
1394722286459,1.03409
1394722346459,1.03587
1394722406459,1.03780
1394722466459,1.02975
1394722526459,1.03667
1394722586459,1.03393
1394722646459,1.03546
1394722706459,1.03639
1394722766459,1.03857
1394722826470,1.02569
1394722886470,1.02589
1394722946470,1.04157
1394723006470,1.03151
1394723066470,1.03167
1394723126470,1.03986
1394723186470,1.03721
1394723246470,1.03367
1394723306470,1.03767
1394723366470,1.03651
1394723426470,1.03288
1394723486470,1.03579
1394723546470,1.04187
1394723606470,1.03598
1394723666470,1.03566
1394723726470,1.03008
1394723786470,1.04396
1394723846470,1.04062
1394723906470,1.04971
1394723966470,1.05121
1394724026470,1.04220
1394724086470,1.04694
1394724146470,1.04555
1394724206470,1.05784
1394724266470,1.06822
1394724326470,1.05718
1394724386470,1.06480
1394724446470,1.06594
1394724506470,1.05885
1394724566470,1.06089
1394724626470,1.06057
1394724686470,1.07429
1394724746470,1.07717
1394724806470,1.07962
1394724866470,1.08656
1394724926470,1.08720
1394724986470,1.08181
1394725046470,1.08549
1394725106470,1.08075
1394725166470,1.09144
1394725226470,1.08730
1394725286470,1.08451
1394725346470,1.08819
1394725406470,1.07861
1394725466470,1.07987
1394725526470,1.07793
1394725586470,1.08109
1394725646470,1.07449
1394725706470,1.08958
1394725766470,1.06877
1394725826470,1.07575
1394725886470,1.07206
1394725946470,1.07569
1394726006470,1.07029
1394726066470,1.06982
1394726126470,1.06888
1394726186470,1.06580
1394726246470,1.06570
1394726306470,1.06683
1394726366470,1.06075
1394726426481,1.05495
1394726486481,1.05853
1394726546481,1.05899
1394726606481,1.06652
1394726666481,1.05538
1394726726481,1.05548
1394726786481,1.06221
1394726846481,1.05583
1394726906481,1.05138
1394726966481,1.05925
1394727026481,1.04671
1394727086481,1.04755
1394727146481,1.04736
1394727206481,1.05311
1394727266481,1.05165
1394727326481,1.04950
1394727386481,1.04128
1394727446481,1.04800
1394727506481,1.04202
1394727566481,1.03925
1394727626481,1.05237
1394727686481,1.03966
1394727746481,1.04278
1394727806481,1.03797
1394727866481,1.03503
1394727926481,1.03853
1394727986481,1.02953
1394728046481,1.03134
1394728106481,1.03427
1394728166481,1.02355
1394728226481,1.02396
1394728286481,1.03513
1394728346481,1.02893
1394728406481,1.02796
1394728466481,1.02815
1394728526481,1.02695
1394728586481,1.02597
1394728646481,1.03077
1394728706481,1.02906
1394728766481,1.02553
1394728826481,1.03619
1394728886481,1.03070
1394728946481,1.02997
1394729006481,1.03360
1394729066481,1.02423
1394729126481,1.03737
1394729186481,1.03043
1394729246481,1.03125
1394729306481,1.04379
1394729366481,1.03309
1394729426481,1.03539
1394729486481,1.03421
1394729546481,1.02485
1394729606481,1.03199
1394729666481,1.02556
1394729726481,1.02481
1394729786481,1.02562
1394729846481,1.03012
1394729906481,1.02532
1394729966481,1.02495
1394730026492,1.03622
1394730086492,1.03931
1394730146492,1.03285
1394730206492,1.03038
1394730266492,1.02336
1394730326492,1.02987
1394730386492,1.03044
1394730446492,1.03464
1394730506492,1.03904
1394730566492,1.03946
1394730626492,1.03385
1394730686492,1.04380
1394730746492,1.04408
1394730806492,1.04631
1394730866492,1.05099
1394730926492,1.06196
1394730986492,1.06720
1394731046492,1.06687
1394731106492,1.06924
1394731166492,1.07955
1394731226492,1.07006
1394731286492,1.07337
1394731346492,1.07772
1394731406492,1.06939
1394731466492,1.07533
1394731526492,1.07371
1394731586492,1.07169
1394731646492,1.07609
1394731706492,1.07126
1394731766492,1.07051
1394731826492,1.06847
1394731886492,1.05978
1394731946492,1.05742
1394732006492,1.07052
1394732066492,1.05556
1394732126492,1.06708
1394732186492,1.05463
1394732246492,1.04914
1394732306492,1.04933
1394732366492,1.04874
1394732426492,1.05015
1394732486492,1.04599
1394732546492,1.05137
1394732606492,1.03363
1394732666492,1.05107
1394732726492,1.04183
1394732786492,1.04502
1394732846492,1.03582
1394732906492,1.04549
1394732966492,1.03931
1394733026492,1.03990
1394733086492,1.03539
1394733146492,1.02614
1394733206492,1.03991
1394733266492,1.03016
1394733326492,1.02536
1394733386492,1.02415
1394733446492,1.03331
1394733506492,1.02926
1394733566492,1.03036
1394733626503,1.02801
1394733686503,1.02664
1394733746503,1.04052
1394733806503,1.02744
1394733866503,1.03547
1394733926503,1.03782
1394733986503,1.04243
1394734046503,1.03950
1394734106503,1.03485
1394734166503,1.04161
1394734226503,1.03363
1394734286503,1.03741
1394734346503,1.03243
1394734406503,1.03978
1394734466503,1.03800
1394734526503,1.03148
1394734586503,1.03906
1394734646503,1.04035
1394734706503,1.03405
1394734766503,1.02590
1394734826503,1.03269
1394734886503,1.03009
1394734946503,1.02454
1394735006503,1.03413
1394735066503,1.02196
1394735126503,1.02908
1394735186503,1.02421
1394735246503,1.01625
1394735306503,1.02635
1394735366503,1.02627
1394735426503,1.02284
1394735486503,1.01952
1394735546503,1.03086
1394735606503,1.02004
1394735666503,1.01955
1394735726503,1.02811
1394735786503,1.02790
1394735846503,1.01978
1394735906503,1.02545
1394735966503,1.02627
1394736026503,1.03550
1394736086503,1.02122
1394736146503,1.02360
1394736206503,1.02162
1394736266503,1.02837
1394736326503,1.01694
1394736386503,1.02962
1394736446503,1.02179
1394736506503,1.01654
1394736566503,1.02014
1394736626503,1.02328
1394736686503,1.01738
1394736746503,1.02843
1394736806503,1.02263
1394736866503,1.02031
1394736926503,1.02455
1394736986503,1.01797
1394737046503,1.02783
1394737106503,1.01442
1394737166503,1.02783
1394737226514,1.02536
1394737286514,1.01848
1394737346514,1.02686
1394737406514,1.02672
1394737466514,1.03013
1394737526514,1.02802
1394737586514,1.02342
1394737646514,1.03856
1394737706514,1.04946
1394737766514,1.05238
1394737826514,1.05589
1394737886514,1.05854
1394737946514,1.06945
1394738006514,1.08966
1394738066514,1.10031
1394738126514,1.13684
1394738186514,1.19304
1394738246514,1.24037
1394738306514,1.28197
1394738366514,1.31237
1394738426514,1.32528
1394738486514,1.31579
1394738546514,1.33770
1394738606514,1.33452
1394738666514,1.33349
1394738726514,1.31808
1394738786514,1.30399
1394738846514,1.29904
1394738906514,1.27762
1394738966514,1.27289
1394739026514,1.26198
1394739086514,1.26413
1394739146514,1.26158
1394739206514,1.26947
1394739266514,1.26270
1394739326514,1.26904
1394739386514,1.25564
1394739446514,1.25651
1394739506514,1.26233
1394739566514,1.26196
1394739626514,1.25888
1394739686514,1.26198
1394739746514,1.26069
1394739806514,1.24823
1394739866514,1.26188
1394739926514,1.25048
1394739986514,1.25112
1394740046514,1.24547
1394740106514,1.24498
1394740166514,1.23394
1394740226514,1.23677
1394740286514,1.23894
1394740346514,1.23355
1394740406514,1.22867
1394740466514,1.22370
1394740526514,1.21534
1394740586514,1.21925
1394740646514,1.19857
1394740706514,1.20201
1394740766514,1.19816
1394740826526,1.20115
1394740886525,1.19049
1394740946525,1.18998
1394741006525,1.19754
1394741066526,1.18053
1394741126526,1.18228
1394741186526,1.16909
1394741246526,1.15555
1394741306526,1.17025
1394741366526,1.15617
1394741426526,1.15976
1394741486526,1.15294
1394741546526,1.14819
1394741606526,1.15196
1394741666526,1.14057
1394741726526,1.14273
1394741786526,1.13498
1394741846526,1.13559
1394741906526,1.12170
1394741966526,1.13551
1394742026526,1.11808
1394742086526,1.13144
1394742146526,1.11895
1394742206525,1.11942
1394742266525,1.11947
1394742326525,1.11389
1394742386525,1.10649
1394742446526,1.10586
1394742506526,1.10359
1394742566526,1.09816
1394742626526,1.10445
1394742686526,1.09744
1394742746526,1.10068
1394742806526,1.08405
1394742866526,1.08775
1394742926526,1.08088
1394742986526,1.07828
1394743046526,1.09432
1394743106526,1.08057
1394743166526,1.08293
1394743226526,1.07952
1394743286526,1.07889
1394743346526,1.08262
1394743406526,1.07203
1394743466526,1.07558
1394743526526,1.07538
1394743586525,1.07663
1394743646525,1.07956
1394743706525,1.07224
1394743766526,1.07043
1394743826526,1.06776
1394743886526,1.06427
1394743946526,1.07164
1394744006526,1.06735
1394744066526,1.06762
1394744126526,1.06140
1394744186526,1.06616
1394744246526,1.06484
1394744306526,1.05747
1394744366526,1.06301
1394744426537,1.06239
1394744486537,1.05754
1394744546537,1.05365
1394744606537,1.05041
1394744666537,1.05282
1394744726537,1.05434
1394744786537,1.05244
1394744846537,1.05862
1394744906537,1.05388
1394744966537,1.05123
1394745026537,1.06336
1394745086537,1.05351
1394745146537,1.05353
1394745206537,1.05327
1394745266537,1.05583
1394745326537,1.04790
1394745386537,1.05504
1394745446537,1.05275
1394745506537,1.05985
1394745566537,1.05422
1394745626537,1.05519
1394745686537,1.05825
1394745746537,1.05423
1394745806537,1.05690
1394745866537,1.05506
1394745926537,1.05574
1394745986537,1.04154
1394746046537,1.04540
1394746106537,1.05178
1394746166537,1.04861
1394746226537,1.04980
1394746286537,1.05162
1394746346537,1.05097
1394746406537,1.04629
1394746466537,1.04359
1394746526537,1.04989
1394746586537,1.05189
1394746646537,1.05008
1394746706537,1.04203
1394746766537,1.04594
1394746826537,1.05544
1394746886537,1.04565
1394746946537,1.05095
1394747006537,1.04568
1394747066537,1.03675
1394747126537,1.03970
1394747186537,1.04646
1394747246537,1.04603